A/2019 O2

Japanese version
Home page
Updated on November 5, 2020

---------------------------------------------------------------------

* Profile

Discovery Date July 24, 2019
Magnitude 20.5 mag
Discoverer Pan-STARRS 1 telescope (Haleakala)

* Pictures

* Orbital Elements

Epoch 2023 Apr. 6.0 TT = JDT 2460040.5
T 2023 Apr. 7.23912 TT                                  Rudenko
q   9.6826994            (2000.0)            P               Q
z  +0.0172690      Peri.  129.64108     -0.39155661     -0.54009814
 +/-0.0000000      Node    48.26321     -0.76971519     -0.25137788
e   0.8327898      Incl.   93.30726     +0.50420427     -0.80318314
H    9.5
From 129 observations 2019 July 24-2020 Oct. 26, mean residual 0".4.

* Magnitudes Graph

        H = 9.2  G = 0.15

---------------------------------------------------------------------

The orbital elements are published on M.P.E.C. 2020-U270.
The magnitudes graphs are made with Comet for Windows.

---------------------------------------------------------------------

Copyright(C) Seiichi Yoshida (comet@aerith.net). All rights reserved.